Carbondale, IL

1:21 AM CDT on October 23, 2019 (GMT -0500)
Southern Illinois

Weather History for KMDH - July, 2019

Change the Weather History Date:

Tuesday, July 30, 2019

  Actual Average Record
Temperature  
Mean Temperature 78 °F -  
Max Temperature 86 °F 87 °F 105 °F (1940)
Min Temperature 66 °F 64 °F 51 °F (1984)
Cooling Degree Days 12    
Growing Degree Days 28 (Base 50)    
Moisture  
Dew Point 69 °F    
Average Humidity 83    
Maximum Humidity 100    
Minimum Humidity 49    
Precipitation  
Precipitation 0.00 in - - ()
Sea Level Pressure  
Sea Level Pressure 30.00 in    
Wind  
Wind Speed 3 mph (NW)    
Max Wind Speed 12 mph    
Max Gust Speed -    
Visibility 7 miles    
Events Fog    
Averages and records for this station are not official NWS values.
T = Trace of Precipitation, MM = Missing Value Source: NWS Daily Summary

Daily Weather History Graph

Daily Weather History Graph

Search for Another Location

Airport or City:

Astronomy

Jul. 30, 2019 Rise Set
Actual Time 5:58 AM CDT 8:07 PM CDT
Civil Twilight 5:29 AM CDT 8:36 PM CDT
Nautical Twilight 4:53 AM CDT 9:12 PM CDT
Astronomical Twilight 4:14 AM CDT 9:51 PM CDT
Moon 4:08 AM CDT (7/30) 7:11 PM CDT (7/30)
Length of Visible Light 15h 07m
Length of Day
14h 09m
Waning Crescent, 3% of the Moon is Illuminated
Jul 30
Waning Crescent
Jul 31
New
Aug 7
First Quarter
Aug 15
Full
Aug 23
Last Quarter

Hourly Weather History & Observations

Time (CDT) Temp. Heat Index Dew Point Humidity Pressure Visibility Wind Dir Wind Speed Gust Speed Precip Events Conditions
12:04 AM 73.0 °F - 72.0 °F 96% 29.98 in 10.0 mi Calm Calm - N/A   Mostly Cloudy
12:43 AM 73.0 °F - 72.0 °F 96% 29.97 in 10.0 mi SSW 5.8 mph - N/A   Overcast
12:52 AM 73.0 °F - 72.0 °F 96% 29.96 in 9.0 mi South 4.6 mph - N/A   Overcast
1:11 AM 73.0 °F - 72.0 °F 96% 29.97 in 9.0 mi SSW 4.6 mph - N/A   Overcast
1:52 AM 73.0 °F - 72.0 °F 96% 29.96 in 9.0 mi South 4.6 mph - N/A   Mostly Cloudy
2:52 AM 73.0 °F - 72.0 °F 96% 29.95 in 8.0 mi WSW 4.6 mph - N/A   Mostly Cloudy
3:44 AM 73.0 °F - 72.0 °F 96% 29.96 in 7.0 mi WNW 5.8 mph - N/A   Overcast
3:52 AM 73.0 °F - 72.0 °F 96% 29.95 in 7.0 mi West 6.9 mph - N/A   Overcast
4:32 AM 72.0 °F - 71.1 °F 97% 29.97 in 6.0 mi Calm Calm - N/A   Scattered Clouds
4:52 AM 72.0 °F - 71.1 °F 97% 29.96 in 5.0 mi Calm Calm - N/A   Clear
5:10 AM 71.1 °F - 71.1 °F 100% 29.97 in 1.5 mi Calm Calm - N/A   Partly Cloudy
5:12 AM 71.1 °F - 71.1 °F 100% 29.97 in 0.8 mi Calm Calm - N/A   Mist
5:21 AM 70.0 °F - 70.0 °F 100% 29.98 in 0.2 mi Calm Calm - N/A Fog Fog
5:45 AM 70.0 °F - 69.1 °F 97% 29.99 in 1.2 mi Calm Calm - N/A   Partly Cloudy
5:52 AM 70.0 °F - 69.1 °F 97% 29.98 in 1.0 mi Calm Calm - N/A   Mist
6:01 AM 69.1 °F - 68.0 °F 96% 29.99 in 0.5 mi Calm Calm - N/A Fog Fog
6:08 AM 70.0 °F - 69.1 °F 97% 30.00 in 0.2 mi Calm Calm - N/A Fog Fog
6:29 AM 70.0 °F - 69.1 °F 97% 30.00 in 1.2 mi Calm Calm - N/A   Scattered Clouds
6:31 AM 70.0 °F - 69.1 °F 97% 30.00 in 3.0 mi Calm Calm - N/A   Scattered Clouds
6:52 AM 71.1 °F - 70.0 °F 96% 30.00 in 7.0 mi North 3.5 mph - N/A   Clear
7:52 AM 73.9 °F - 70.0 °F 87% 30.01 in 10.0 mi Calm Calm - N/A   Clear
8:52 AM 75.9 °F - 70.0 °F 82% 30.03 in 10.0 mi West 3.5 mph - N/A   Clear
9:52 AM 80.1 °F 83.6 °F 71.1 °F 74% 30.04 in 10.0 mi Calm Calm - N/A   Clear
10:52 AM 82.9 °F 87.0 °F 70.0 °F 65% 30.03 in 10.0 mi North 5.8 mph - N/A   Partly Cloudy
11:52 AM 84.0 °F 87.0 °F 68.0 °F 58% 30.03 in 10.0 mi NNE 4.6 mph - N/A   Mostly Cloudy
12:52 PM 84.9 °F 87.6 °F 66.9 °F 55% 30.04 in 10.0 mi North 5.8 mph - N/A   Mostly Cloudy
1:52 PM 86.0 °F 88.8 °F 66.9 °F 53% 30.02 in 10.0 mi NW 10.4 mph - N/A   Mostly Cloudy
2:52 PM 86.0 °F 87.6 °F 64.9 °F 49% 30.01 in 10.0 mi WNW 8.1 mph - N/A   Clear
3:52 PM 84.9 °F 87.1 °F 66.0 °F 53% 30.00 in 10.0 mi NNW 5.8 mph - N/A   Clear
4:52 PM 84.9 °F 86.6 °F 64.9 °F 51% 29.99 in 10.0 mi NNW 11.5 mph - N/A   Clear
5:52 PM 84.0 °F 84.9 °F 63.0 °F 49% 29.99 in 10.0 mi NNW 8.1 mph - N/A   Clear
6:52 PM 82.0 °F 83.1 °F 63.0 °F 52% 30.00 in 10.0 mi NNW 6.9 mph - N/A   Clear
7:52 PM 78.1 °F - 64.9 °F 64% 30.01 in 10.0 mi North 4.6 mph - N/A   Clear
8:52 PM 73.0 °F - 66.0 °F 79% 30.02 in 10.0 mi North 3.5 mph - N/A   Clear
9:52 PM 70.0 °F - 66.0 °F 87% 30.05 in 10.0 mi Calm Calm - N/A   Clear
10:52 PM 69.1 °F - 66.0 °F 90% 30.06 in 10.0 mi Calm Calm - N/A   Clear
11:52 PM 66.9 °F - 66.0 °F 97% 30.05 in 9.0 mi Calm Calm - N/A   Clear